Eugene, OR

2:42 AM PST on November 21, 2019 (GMT -0800)
Mahlon Sweet

Weather History for KEUG - September, 2019

Change the Weather History Date:

Sunday, September 1, 2019

  Actual Average Record
Temperature  
Mean Temperature 73 °F 65 °F  
Max Temperature 85 °F 81 °F 98 °F (1988)
Min Temperature 60 °F 50 °F 39 °F (1973)
Degree Days  
Heating Degree Days 0 2  
Month to date heating degree days 0 2  
Since 1 July heating degree days 12 69  
Cooling Degree Days 8 2  
Month to date cooling degree days 8 2  
Year to date cooling degree days 316 210  
Growing Degree Days 22 (Base 50)    
Moisture  
Dew Point 55 °F    
Average Humidity 62    
Maximum Humidity 90    
Minimum Humidity 34    
Precipitation  
Precipitation 0.00 in 0.03 in 1.32 in (1979)
Month to date precipitation 0.00 0.03  
Year to date precipitation 23.21 26.04  
Sea Level Pressure  
Sea Level Pressure 30.00 in    
Wind  
Wind Speed 6 mph (West)    
Max Wind Speed 14 mph    
Max Gust Speed 18 mph    
Visibility 10 miles    
Events      
T = Trace of Precipitation, MM = Missing Value Source: NWS Daily Summary

Daily Weather History Graph

Daily Weather History Graph

Search for Another Location

Airport or City:

Astronomy

Sep. 01, 2019 Rise Set
Actual Time 6:35 AM PDT 7:49 PM PDT
Civil Twilight 6:06 AM PDT 8:18 PM PDT
Nautical Twilight 5:30 AM PDT 8:54 PM PDT
Astronomical Twilight 4:52 AM PDT 9:32 PM PDT
Moon 9:17 AM PDT (9/1) 9:33 PM PDT (9/1)
Length of Visible Light 14h 12m
Length of Day
13h 13m
Waxing Crescent, 8% of the Moon is Illuminated
Sep 1
Waxing Crescent
Sep 5
First Quarter
Sep 13
Full
Sep 21
Last Quarter
Sep 28
New

Hourly Weather History & Observations

Time (PDT) Temp. Heat Index Dew Point Humidity Pressure Visibility Wind Dir Wind Speed Gust Speed Precip Events Conditions
12:54 AM 69.1 °F - 59.0 °F 70% 30.00 in 10.0 mi WSW 8.1 mph - N/A   Overcast
1:54 AM 68.0 °F - 59.0 °F 73% 30.00 in 10.0 mi West 6.9 mph - N/A   Overcast
2:54 AM 66.9 °F - 57.9 °F 73% 30.00 in 10.0 mi WSW 3.5 mph - N/A   Overcast
3:54 AM 66.9 °F - 57.9 °F 73% 30.00 in 10.0 mi SW 3.5 mph - N/A   Overcast
4:54 AM 64.9 °F - 57.0 °F 75% 29.99 in 10.0 mi WSW 3.5 mph - N/A   Mostly Cloudy
5:54 AM 63.0 °F - 57.0 °F 81% 30.00 in 10.0 mi SW 4.6 mph - N/A   Mostly Cloudy
6:54 AM 61.0 °F - 57.0 °F 87% 30.01 in 10.0 mi SW 6.9 mph - N/A   Scattered Clouds
7:54 AM 63.0 °F - 57.0 °F 81% 30.03 in 10.0 mi WSW 4.6 mph - N/A   Partly Cloudy
8:54 AM 66.9 °F - 57.0 °F 70% 30.02 in 10.0 mi Calm Calm - N/A   Partly Cloudy
9:54 AM 70.0 °F - 55.9 °F 61% 30.03 in 10.0 mi Variable 3.5 mph - N/A   Partly Cloudy
10:54 AM 73.9 °F - 54.0 °F 50% 30.03 in 10.0 mi SSW 6.9 mph - N/A   Partly Cloudy
11:54 AM 77.0 °F - 54.0 °F 45% 30.02 in 10.0 mi Variable 3.5 mph - N/A   Partly Cloudy
12:54 PM 79.0 °F - 53.1 °F 40% 30.01 in 10.0 mi Variable 3.5 mph - N/A   Partly Cloudy
1:54 PM 82.0 °F 81.3 °F 54.0 °F 38% 29.99 in 10.0 mi North 4.6 mph - N/A   Partly Cloudy
2:54 PM 82.9 °F 81.8 °F 53.1 °F 36% 29.98 in 10.0 mi Variable 5.8 mph - N/A   Partly Cloudy
3:54 PM 84.9 °F 83.2 °F 53.1 °F 33% 29.97 in 10.0 mi WNW 11.5 mph 16.1 mph N/A   Partly Cloudy
4:54 PM 82.9 °F 81.9 °F 54.0 °F 37% 29.97 in 10.0 mi WNW 6.9 mph - N/A   Partly Cloudy
5:54 PM 82.9 °F - 52.0 °F 34% 29.96 in 10.0 mi West 9.2 mph - N/A   Partly Cloudy
6:54 PM 80.1 °F - 51.1 °F 36% 29.96 in 10.0 mi West 8.1 mph - N/A   Scattered Clouds
7:54 PM 75.0 °F - 55.0 °F 50% 29.98 in 10.0 mi West 11.5 mph - N/A   Partly Cloudy
8:54 PM 70.0 °F - 53.1 °F 55% 30.00 in 10.0 mi WNW 5.8 mph - N/A   Partly Cloudy
9:54 PM 66.0 °F - 52.0 °F 60% 30.01 in 10.0 mi NNE 4.6 mph - N/A   Clear
10:54 PM 64.0 °F - 51.1 °F 63% 30.02 in 10.0 mi NNE 4.6 mph - N/A   Clear
11:54 PM 63.0 °F - 53.1 °F 70% 30.02 in 10.0 mi Calm Calm - N/A   Scattered Clouds